Terminal Aerodrome Forecast
Issued by NWS

Current Version | Previous Version | Graphics & Text | Print | Product List | Glossary On
Versions: 1 2 3 4 5 6 7 8 9 10 11 12 13 14 15 16 17 18 19 20 21
000
FTUS41 KPBZ 180700 AAA
TAFHLG
TAF AMD
KHLG 180757Z 1808/1906 26015G25KT P6SM -SHSN SCT025 BKN035
      TEMPO 1808/1810 1SM -SHSN BKN025
     FM181400 26015G25KT P6SM BKN025
     FM181900 25012G22KT P6SM BKN035=

USA.gov is the U.S. government's official web portal to all federal, state and local government web resources and services.